Retour au catalogue

CZ-6A DEB

ActifPO
NORAD 64645·DEBRIS·🇨🇳 China

Lancé Aug 6, 2024 depuis Taiyuan Satellite Launch Center

Loading…

Prochains Passages (prochaines 24 heures)

TLE

FraisSource: Space-Track

Époque: Sep 14, 2026, 06:26 UTC

1 64645U 24140AEK 26257.26860668  .00001655  00000-0  85513-3 0  9992
2 64645  88.3266 205.8729 0088910 289.8360  69.3258 14.12557253 99720

Suivez CZ-6A DEB en temps réel avec AllMySat

Download on the App Store